• In Portugal
  • List of Countries
  • For 7 days
  • Water Temperature
  • Satellite Maps
  • Weather Map
  • Weather Widgets
  • user-avatar
    Login

    Hourly Weather Kobdo

    Today, 22 October, Sunday

    Time Temperature Precipitation Wind Pressure Humidity
    00:00 -2°C° 0 mm 2 mps 588 mmHg 51%
    01:00 -2°C° 0 mm 2 mps 588 mmHg 50%
    02:00 -3°C° 0 mm 2 mps 588 mmHg 49%
    03:00 -3°C° 0 mm 2 mps 588 mmHg 49%
    04:00 -3°C° 0 mm 2 mps 588 mmHg 49%
    05:00 -3°C° 0 mm 2 mps 588 mmHg 49%
    06:00 -3°C° 0 mm 2 mps 588 mmHg 51%
    07:00 -2°C° 0 mm 2 mps 589 mmHg 49%
    08:00 +1°C° 0 mm 2 mps 589 mmHg 47%
    09:00 +2°C° 0 mm 2 mps 590 mmHg 45%
    10:00 +3°C° 0 mm 2 mps 590 mmHg 44%
    11:00 +4°C° 0 mm 2 mps 590 mmHg 42%
    12:00 +6°C° 0 mm 2 mps 591 mmHg 40%
    13:00 +6°C° 0 mm 2 mps 590 mmHg 41%
    14:00 +6°C° 0 mm 2 mps 590 mmHg 42%
    15:00 +6°C° 0 mm 2 mps 590 mmHg 43%
    16:00 +4°C° 0 mm 2 mps 590 mmHg 47%
    17:00 +3°C° 0 mm 2 mps 589 mmHg 51%
    18:00 +1°C° 0 mm 2 mps 589 mmHg 55%
    19:00 +1°C° 0 mm 2 mps 589 mmHg 55%
    20:00 +1°C° 0 mm 2 mps 589 mmHg 54%
    21:00 -1°C° 0 mm 2 mps 589 mmHg 54%
    22:00 -1°C° 0 mm 2 mps 589 mmHg 53%
    23:00 -1°C° 0 mm 2 mps 589 mmHg 52%

    Tomorrow, 23 October, Monday

    Time Temperature Precipitation Wind Pressure Humidity
    00:00 -1°C° 0 mm 2 mps 589 mmHg 51%
    01:00 -2°C° 0 mm 2 mps 589 mmHg 50%
    02:00 -2°C° 0 mm 2 mps 589 mmHg 50%
    03:00 -2°C° 0 mm 2 mps 588 mmHg 49%
    04:00 -2°C° 0 mm 2 mps 589 mmHg 50%
    05:00 -2°C° 0 mm 2 mps 589 mmHg 50%
    06:00 -2°C° 0 mm 2 mps 589 mmHg 51%
    07:00 -1°C° 0 mm 2 mps 589 mmHg 48%
    08:00 +1°C° 0 mm 2 mps 590 mmHg 46%
    09:00 +3°C° 0 mm 2 mps 591 mmHg 44%
    10:00 +5°C° 0 mm 1 mps 591 mmHg 41%
    11:00 +6°C° 0 mm 1 mps 591 mmHg 39%
    12:00 +7°C° 0 mm 1 mps 591 mmHg 37%
    13:00 +7°C° 0 mm 1 mps 591 mmHg 38%
    14:00 +6°C° 0 mm 1 mps 591 mmHg 39%
    15:00 +6°C° 0 mm 1 mps 591 mmHg 39%
    16:00 +5°C° 0 mm 1 mps 590 mmHg 43%
    17:00 +3°C° 0 mm 1 mps 590 mmHg 46%
    18:00 +2°C° 0 mm 1 mps 589 mmHg 50%
    19:00 +1°C° 0 mm 1 mps 589 mmHg 51%
    20:00 +1°C° 0 mm 1 mps 589 mmHg 51%
    21:00 +1°C° 0 mm 1 mps 589 mmHg 52%
    22:00 0°C° 0 mm 1 mps 589 mmHg 52%
    23:00 0°C° 0 mm 1 mps 589 mmHg 52%

    Day after tomorrow, 24 October, Tuesday

    Time Temperature Precipitation Wind Pressure Humidity
    00:00 0°C° 0 mm 1 mps 589 mmHg 52%
    01:00 0°C° 0 mm 1 mps 589 mmHg 52%
    02:00 -1°C° 0 mm 1 mps 588 mmHg 52%
    03:00 -1°C° 0 mm 1 mps 588 mmHg 52%
    04:00 -1°C° 0 mm 1 mps 588 mmHg 52%
    05:00 -1°C° 0 mm 1 mps 588 mmHg 51%
    06:00 -1°C° 0 mm 1 mps 588 mmHg 51%
    07:00 0°C° 0 mm 1 mps 589 mmHg 48%
    08:00 +1°C° 0 mm 1 mps 590 mmHg 45%
    09:00 +3°C° 0 mm 1 mps 591 mmHg 42%
    10:00 +4°C° 0 mm 1 mps 591 mmHg 40%
    11:00 +5°C° 0 mm 1 mps 591 mmHg 39%
    12:00 +5°C° 0 mm 2 mps 591 mmHg 37%
    13:00 +5°C° 0 mm 2 mps 591 mmHg 37%
    14:00 +5°C° 0 mm 2 mps 591 mmHg 38%
    15:00 +5°C° 0 mm 2 mps 591 mmHg 38%
    16:00 +4°C° 0 mm 2 mps 590 mmHg 42%
    17:00 +2°C° 0 mm 2 mps 590 mmHg 46%
    18:00 +1°C° 0 mm 2 mps 590 mmHg 50%
    19:00 +1°C° 0 mm 2 mps 590 mmHg 50%
    20:00 -1°C° 0 mm 2 mps 591 mmHg 51%
    21:00 -1°C° 0 mm 3 mps 591 mmHg 51%
    22:00 -1°C° 0 mm 3 mps 591 mmHg 51%
    23:00 -1°C° 0 mm 3 mps 591 mmHg 50%

    25 October, Wednesday

    Time Temperature Precipitation Wind Pressure Humidity
    00:00 -1°C° 0 mm 3 mps 591 mmHg 50%
    01:00 -1°C° 0 mm 3 mps 591 mmHg 50%
    02:00 -2°C° 0 mm 3 mps 591 mmHg 50%
    03:00 -2°C° 0 mm 3 mps 591 mmHg 51%
    04:00 -2°C° 0 mm 3 mps 591 mmHg 51%
    05:00 -2°C° 0 mm 3 mps 591 mmHg 52%
    06:00 -2°C° 0 mm 3 mps 591 mmHg 53%
    07:00 -1°C° 0 mm 3 mps 591 mmHg 51%
    08:00 -1°C° 0 mm 4 mps 591 mmHg 50%
    09:00 0°C° 0 mm 4 mps 592 mmHg 49%
    10:00 +1°C° 0 mm 5 mps 591 mmHg 48%
    11:00 +2°C° 0 mm 6 mps 591 mmHg 47%
    12:00 +3°C° 0 mm 7 mps 591 mmHg 46%
    13:00 +3°C° 0 mm 7 mps 590 mmHg 45%
    14:00 +3°C° 0 mm 7 mps 590 mmHg 45%
    15:00 +3°C° 0 mm 7 mps 589 mmHg 45%
    16:00 +2°C° 0 mm 6 mps 589 mmHg 49%
    17:00 -1°C° 0 mm 6 mps 588 mmHg 53%
    18:00 -2°C° 0 mm 6 mps 588 mmHg 57%
    19:00 -2°C° 0 mm 7 mps 588 mmHg 57%
    20:00 -3°C° 0 mm 9 mps 588 mmHg 56%
    21:00 -2°C° 0 mm 10 mps 588 mmHg 56%
    22:00 -3°C° 0.1 mm 10 mps 587 mmHg 57%
    23:00 -3°C° 0.1 mm 11 mps 587 mmHg 58%

    26 October, Thursday

    Time Temperature Precipitation Wind Pressure Humidity
    00:00 -3°C° 0.1 mm 11 mps 587 mmHg 60%
    01:00 -4°C° 0.2 mm 10 mps 587 mmHg 59%
    02:00 -5°C° 0.2 mm 9 mps 587 mmHg 59%
    03:00 -5°C° 0.2 mm 8 mps 587 mmHg 59%
    04:00 -6°C° 0.1 mm 8 mps 587 mmHg 54%
    05:00 -7°C° 0.1 mm 8 mps 587 mmHg 49%
    06:00 -8°C° 0.1 mm 8 mps 587 mmHg 43%
    07:00 -10°C° 0 mm 8 mps 588 mmHg 39%
    08:00 -10°C° 0 mm 9 mps 588 mmHg 36%
    09:00 -11°C° 0 mm 9 mps 589 mmHg 32%
    10:00 -10°C° 0 mm 9 mps 589 mmHg 33%
    11:00 -10°C° 0 mm 8 mps 589 mmHg 34%
    12:00 -10°C° 0 mm 8 mps 590 mmHg 35%
    13:00 -9°C° 0 mm 7 mps 590 mmHg 35%
    14:00 -9°C° 0 mm 6 mps 590 mmHg 35%
    15:00 -10°C° 0 mm 5 mps 590 mmHg 36%
    16:00 -9°C° 0 mm 4 mps 590 mmHg 39%
    17:00 -9°C° 0 mm 3 mps 591 mmHg 41%
    18:00 -9°C° 0 mm 2 mps 591 mmHg 44%
    19:00 -10°C° 0 mm 2 mps 591 mmHg 46%
    20:00 -9°C° 0 mm 1 mps 592 mmHg 47%
    21:00 -9°C° 0 mm 1 mps 592 mmHg 49%
    22:00 -10°C° 0 mm 1 mps 592 mmHg 49%
    23:00 -10°C° 0 mm 1 mps 592 mmHg 49%

    27 October, Friday

    Time Temperature Precipitation Wind Pressure Humidity
    00:00 -10°C° 0 mm 1 mps 592 mmHg 50%
    01:00 -10°C° 0 mm 1 mps 592 mmHg 50%
    02:00 -10°C° 0 mm 1 mps 592 mmHg 50%
    03:00 -11°C° 0 mm 1 mps 592 mmHg 50%
    04:00 -11°C° 0 mm 1 mps 592 mmHg 50%
    05:00 -11°C° 0 mm 1 mps 592 mmHg 50%
    06:00 -11°C° 0 mm 0 mps 592 mmHg 50%
    07:00 -10°C° 0 mm 0 mps 593 mmHg 47%
    08:00 -9°C° 0 mm 0 mps 594 mmHg 44%
    09:00 -8°C° 0 mm 0 mps 594 mmHg 41%
    10:00 -7°C° 0 mm 1 mps 594 mmHg 39%
    11:00 -7°C° 0 mm 1 mps 594 mmHg 37%
    12:00 -6°C° 0 mm 1 mps 594 mmHg 34%
    13:00 -6°C° 0 mm 1 mps 594 mmHg 35%
    14:00 -6°C° 0 mm 1 mps 594 mmHg 36%
    15:00 -6°C° 0 mm 1 mps 594 mmHg 37%
    16:00 -7°C° 0 mm 1 mps 594 mmHg 39%
    17:00 -8°C° 0 mm 1 mps 594 mmHg 41%
    18:00 -9°C° 0 mm 1 mps 593 mmHg 44%
    19:00 -9°C° 0 mm 1 mps 594 mmHg 44%
    20:00 -9°C° 0 mm 1 mps 594 mmHg 45%
    21:00 -9°C° 0 mm 0 mps 594 mmHg 46%
    22:00 -9°C° 0 mm 0 mps 594 mmHg 46%
    23:00 -10°C° 0 mm 0 mps 594 mmHg 47%
    Show more